Flag for Sudan Weather past 2 weeks in Port Sudan, Sudan

Now
93 °F

Sunny.


Feels Like: 99 °F
Forecast: 78 / 101 °F
Wind: 17 mph from Northwest

Location: Jeddah King Abdul Aziz International Airport

Current Time: Jul 1, 2015 at 6:56:10 PM

Latest Report: Jul 1, 2015 at 6:00 PM


Visibility: 10 mi

Pressure: 29.68 "Hg

Humidity: 47%

Dew point: 70 °F

Location of Port SudanLocation

Historic Weather in Port Sudan — Graph

°F

Port Sudan temperature yesterday

Maximum temperature yesterday: 102 °F (at 1:00 PM)
Minimum temperature yesterday: 81 °F (at 6:00 AM)
Average temperature yesterday: 91 °F

Past Weeks' High & Low Weather Summary

 TemperatureHumidityPressure
High104 °F (Jun 29, 1:00 PM)89% (Jun 24, 6:00 AM)29.80 "Hg (Jun 24, 6:00 AM)
Low73 °F (Jun 23, 6:00 AM)11% (Jun 28, 12:00 PM)29.56 "Hg (Jun 17, 2:00 AM)
Average88 °F49%29.70 "Hg
* Reported Jun 16 5:00 PM — Jul 1 5:00 PM, Port Sudan, Weather by CustomWeather, © 2015

Note: Actual official high and low records may vary slightly from our data, if they occured in-between our weather recording intervals... More about our weather records

Advertising

Port Sudan weather history for previous 24 hours

 ConditionsComfort  
Time TempWeatherWind HumidityBarometerVisibility
5:00 PM
Wed, Jul 1
95 °FSunny.21 mph36%29.68 "Hg10 mi
4:00 PM97 °FSunny.21 mph34%29.68 "Hg10 mi
3:00 PM99 °FSunny.21 mph33%29.68 "Hg10 mi
2:00 PM99 °FSunny.12 mph35%29.71 "Hg10 mi
1:00 PM99 °FSunny.17 mph33%29.71 "Hg10 mi
12:00 PM97 °FSunny.16 mph37%29.71 "Hg10 mi
11:00 AM95 °FSunny.14 mph36%29.74 "Hg10 mi
10:00 AM91 °FSunny.9 mph49%29.74 "Hg10 mi
9:00 AM88 °FSunny.14 mph55%29.74 "Hg10 mi
8:00 AM84 °FSunny.12 mph62%29.74 "Hg10 mi
7:00 AM82 °FSunny.12 mph62%29.71 "Hg10 mi
6:00 AM81 °FSunny.9 mph66%29.71 "Hg10 mi
5:00 AM81 °FClear.5 mph66%29.71 "Hg10 mi
4:00 AM81 °FClear.7 mph66%29.71 "Hg10 mi
3:00 AM82 °FClear.9 mph62%29.71 "Hg10 mi
2:00 AM82 °FClear.9 mph62%29.71 "Hg10 mi
1:00 AM84 °FClear.7 mph58%29.71 "Hg10 mi
12:00 AM84 °FClear.12 mph62%29.74 "Hg10 mi
11:00 PM
Tue, Jun 30
86 °FClear.12 mph55%29.74 "Hg10 mi
10:00 PM86 °FClear.12 mph55%29.74 "Hg10 mi
9:00 PM88 °FClear.9 mph46%29.74 "Hg10 mi
8:00 PM90 °FClear.14 mph41%29.74 "Hg10 mi
7:00 PM93 °FSunny.14 mph34%29.74 "Hg10 mi
6:00 PM97 °FSunny.16 mph28%29.71 "Hg10 mi
Weather by CustomWeather, © 2015

See weather overviewHow to use our weather pages